Location: Baia Mare
(47.6567°N, 23.5850°E)
Time: 21:31:12
(UTC+03:00)

Envisat - Pass Details

Date: 26 January 2022
Orbit: 764 x 765 km, 98.2° (Epoch: 19 May)

Event Time Altitude Azimuth Distance (km) Brightness Sun altitude
Rises 04:36:30 0° 21° (NNE) 3,241 6.6 -34.1°
Reaches altitude 10° 04:39:03 10° 32° (NNE) 2,311 5.9 -33.7°
Maximum altitude 04:43:36 32° 95° (E) 1,290 4.6 -32.9°
Drops below altitude 10° 04:48:07 10° 158° (SSE) 2,296 5.6 -32.1°
Sets 04:50:38 0° 169° (SSE) 3,218 6.3 -31.7°
